Home > Weather > Rio Grande > Past weeks

Flag for Brazil Past Weather in Rio Grande, Rio Grande do Sul, Brazil — Yesterday and Last 2 Weeks

Now
55 °F

Fog.


Feels Like: 54 °F
Forecast: 54 / 61 °F
Wind: 7 mph from East

Location: Pelotas Airport

Current Time: Jun 24, 2016 at 9:08:02 PM

Latest Report: Jun 24, 2016 at 8:00 PM


Visibility: 1 mi

Pressure: 30.24 "Hg

Humidity: 94%

Dew Point: 54 °F

Location of Rio GrandeLocation

Past Weather in Rio Grande — Graph

°F

Rio Grande Temperature Yesterday

Maximum temperature yesterday: 63 °F (at 4:00 PM)
Minimum temperature yesterday: 54 °F (at 9:00 PM)
Average temperature yesterday: 58 °F

High & Low Weather Summary for the Past Weeks

 TemperatureHumidityPressure
High66 °F (Jun 15, 1:00 PM)100% (Jun 13, 7:00 AM)30.45 "Hg (Jun 13, 7:00 AM)
Low34 °F (Jun 13, 7:00 AM)44% (Jun 10, 3:00 PM)30.09 "Hg (Jun 10, 7:00 AM)
Average53 °F82%30.27 "Hg
* Reported Jun 9 8:00 PM — Jun 24 8:00 PM, Rio Grande, Weather by CustomWeather, © 2016

Note: Actual official high and low records may vary slightly from our data, if they occured in-between our weather recording intervals... More about our weather records

Advertising

Rio Grande Weather History for the Previous 24 Hours

Scroll right to see more
 ConditionsComfort  
Time TempWeatherWind HumidityBarometerVisibility
8:00 PM
Fri, Jun 24
55 °FFog.7 mph94%30.24 "Hg1 mi
7:00 PM55 °FPartly cloudy.8 mph94%30.24 "HgN/A
6:00 PM55 °FPassing clouds.12 mph94%30.21 "HgN/A
5:00 PM57 °FOvercast.8 mph88%30.21 "HgN/A
4:00 PM57 °FOvercast.7 mph88%30.21 "HgN/A
3:00 PM61 °FPartly sunny.7 mph77%30.21 "HgN/A
2:00 PM61 °FPartly sunny.7 mph77%30.21 "HgN/A
1:00 PM59 °FOvercast.6 mph82%30.24 "HgN/A
12:00 PM57 °FOvercast.2 mph88%30.27 "HgN/A
11:00 AM55 °FLow clouds.8 mph94%30.27 "Hg5 mi
10:00 AM55 °FOvercast.6 mph94%30.27 "Hg5 mi
9:00 AM54 °FLow clouds.3 mph100%30.27 "Hg4 mi
8:00 AM54 °FFog.8 mph100%30.24 "Hg1 mi
7:00 AM54 °FDrizzle. Low clouds.7 mph100%30.21 "Hg1 mi
9:45 PM
Thu, Jun 23
54 °FFog.1 mph100%30.18 "Hg1 mi
9:00 PM54 °FPassing clouds.3 mph100%30.18 "HgN/A
Weather by CustomWeather, © 2016

See weather overviewHow to use our weather pages